[[{"header":{"parameterUnit":"m.s-1","parameterCategory":1,"la1":30.2991,"la2":30.254,"lo1":-89.0895,"lo2":-89.0444,"dy":0.0017,"dx":0.0017,"nx":28,"ny":28,"refTime":"2024-09-03T21:00:00:Z","depth":0,"parameterNumber":2,"parameterNumberName":"U-component_of_WINDS"},"data":[0,0,0,0,0,0,0,0,0,0,0,0,0,0,0,0,0,0,0,0,0,0,0,0,0,0,0,0,0,0,0,0,0,0,0,0,0,0,0,0,0,0,0,0,0,0,0,0,0,0,0,0,0,0,0,0,0,0,-6.9742,-6.9743,0,-6.9848,-6.985,-6.9851,-6.9651,-6.9645,-6.9638,-6.9632,-6.9747,-6.9756,-6.9765,0,0,0,0,0,0,0,0,0,0,0,0,0,-6.937,-6.9378,-6.9741,-6.9743,-6.9744,-6.9848,-6.985,-6.9851,-6.9652,-6.9644,-6.9636,-6.9629,-6.9744,-6.9755,-6.9766,0,0,0,0,0,0,0,0,0,0,0,0,0,-6.951,-6.9381,-6.9741,-6.9657,-6.9651,-6.9848,-6.985,-6.9852,-6.9654,-6.9644,-6.9634,-6.9625,-6.974,-6.9754,-6.9768,-7.0053,0,0,-6.981,-6.9816,0,0,0,0,0,0,0,0,-6.9502,-6.9524,-6.9668,-6.9663,-6.9657,-6.9726,-6.9761,-6.9919,-6.9657,-6.9653,-6.9631,-6.962,-6.9749,-6.9761,-6.9803,-7.0058,-7.0063,-6.9811,-6.982,-6.9826,-6.983,0,0,0,0,0,0,0,-6.9493,-6.9518,-6.9784,-6.9671,-6.9664,-6.9616,-6.9625,-6.979,-6.9756,-6.9653,-6.9638,-6.9653,-6.9743,-6.979,-6.9804,-7.0065,-6.9811,-6.9823,-6.9832,-6.9837,-7.056,-7.0571,0,0,0,0,0,0,-6.9493,-6.9511,-6.978,-6.9787,-6.9553,-6.9631,-6.9641,-6.9714,-6.9753,-6.9749,-6.9662,-6.9644,-6.9771,-6.9788,-6.9808,-7.0145,-6.9826,-6.9839,-6.9847,-7.055,-7.0563,-7.0575,0,0,0,0,0,0,-6.9486,-6.9519,-6.9776,-6.9645,-6.9674,-6.9648,-6.9732,-6.9721,-6.9768,-6.976,-6.9753,-6.9716,-6.9764,-6.9788,-6.9993,-7.0146,-6.9845,-6.9858,-7.0537,-7.0554,-7.0569,-7.0821,0,0,0,0,0,0,-6.9476,-6.9517,-6.9625,-6.9649,-6.9682,-6.9959,-6.9741,-6.9731,-6.9792,-6.9769,-6.9809,-6.9806,-6.9758,-6.9974,-7.0007,-7.016,-6.9868,-7.0523,-7.0544,-7.0564,-7.0799,-7.0844,-7.0883,0,0,0,0,0,-6.9463,-6.9693,-6.9631,-6.9665,-6.9815,-6.9968,-6.9987,-6.9926,-6.9805,-6.9913,-6.9908,-6.9805,-7.0124,-6.9996,-7.0032,-7.0191,-7.0513,-7.0538,-7.0562,-7.078,-7.0835,-7.0882,0,0,0,0,0,0,-6.9688,-6.9694,-6.9626,-6.987,-6.992,-6.9934,-7.0068,-6.9986,-7.0073,-7.0048,-6.997,-6.9981,-7.0202,-7.0217,-7.0075,-7.047,-7.0298,-7.0331,-7.0452,-7.0504,-7.0545,-7.0537,-6.988,0,0,0,0,0,-6.9766,-6.9888,-6.9887,-7.0102,-7.0131,-7.0096,-7.016,-7.0109,-7.0158,-7.0179,-7.0189,-7.0242,-7.0354,-7.043,-7.0533,-7.08,-7.0807,-7.0928,-7.0969,-7.1003,-7.1033,-7.1176,-7.123,-7.0655,-7.0655,-7.0654,0,0,-6.9928,-6.9946,-7.0029,-7.0148,-7.018,-7.031,-7.0115,-7.0261,-7.0356,-7.0201,-7.0395,-7.0405,-7.0459,-7.0697,-7.0802,-7.0716,-7.1193,-7.1035,-7.1062,-7.1073,-7.1207,-7.1262,-7.131,-7.0671,-7.0668,-7.0666,0,0,-7.029,-7.0316,-7.0497,-7.0534,-7.0585,-7.0561,-7.0605,-7.0632,-7.0632,-7.0825,-7.0711,-7.0825,-7.102,-7.1063,-7.1111,-7.149,-7.1399,-7.1526,-7.1744,-7.1885,-7.193,-7.197,-7.2106,-7.2155,-7.1555,-7.1556,-7.1556,0,-7.0486,-7.0674,-7.0602,-7.0755,-7.0812,-7.0676,-7.086,-7.09,-7.0984,-7.1026,-7.0928,-7.117,-7.1197,-7.1443,-7.1536,-7.1579,-7.1628,-7.1521,-7.1929,-7.1968,-7.2005,-7.2133,-7.2184,-7.1571,-7.1569,-7.1568,-7.1566,0,-7.0913,-7.1046,-7.1187,-7.1269,-7.1341,-7.151,-7.1465,-7.1547,-7.1489,-7.1476,-7.1675,-7.1703,-7.1809,-7.1863,-7.1809,-7.2103,-7.2048,-7.1942,-7.1767,-7.2076,-7.2195,-7.2244,-7.1593,-7.1587,-7.1583,-7.1579,0,0,-7.1419,-7.1458,-7.1512,-7.1547,-7.1594,-7.1696,-7.186,-7.1961,-7.2034,-7.2096,-7.2232,-7.24,-7.2301,-7.2356,-7.2306,-7.2429,-7.2728,-7.2307,-7.2307,-7.2385,-7.3054,-7.3134,-7.3192,-7.2668,-7.2677,-7.2684,-7.305,0,-7.1778,-7.2056,-7.1996,-7.2271,-7.2393,-7.2266,-7.2408,-7.2453,-7.2446,-7.255,-7.2541,-7.2661,-7.2522,-7.2554,-7.2671,-7.2667,-7.2862,-7.264,-7.2795,-7.2801,-7.2785,-7.3255,-7.334,-7.3683,-7.3096,-7.3104,-7.3109,0,-7.2233,-7.2311,-7.2598,-7.2625,-7.2674,-7.2803,-7.2891,-7.2992,-7.3042,-7.3027,-7.3089,-7.3015,-7.3178,-7.3002,-7.3227,-7.3078,-7.3138,-7.3146,-7.3158,-7.317,-7.2974,-7.328,-7.3791,-7.3843,-7.3182,-7.3177,-7.3171,0,-7.2574,-7.2751,-7.2945,-7.2979,-7.3016,-7.3109,-7.313,-7.3169,-7.3234,-7.3312,-7.3354,-7.3452,-7.3506,-7.3584,-7.3539,-7.3415,-7.3773,-7.3593,-7.3766,-7.3768,-7.3847,-7.3843,-7.4376,-7.3887,-7.3886,-7.3885,-7.3884,0,-7.2981,-7.3162,-7.3098,-7.3218,-7.3417,-7.3347,-7.3546,-7.3551,-7.3588,-7.3707,-7.3604,-7.3719,-7.3652,-7.3763,-7.3729,-7.3921,-7.3946,-7.394,-7.3929,-7.395,-7.3951,-7.3988,-7.3963,-7.3898,-7.3895,-7.3893,-7.389,0,-7.3396,-7.336,-7.3563,-7.3581,-7.359,-7.3736,-7.3751,-7.3864,-7.3847,-7.4,-7.4032,-7.4009,-7.4133,-7.4096,-7.4231,-7.4209,-7.4452,-7.441,-7.4435,-7.4425,-7.46,-7.4585,-7.5176,-7.525,-7.4714,-7.4719,-7.4723,0,-7.3657,-7.3793,-7.3825,-7.3896,-7.3923,-7.4041,-7.4106,-7.4044,-7.4116,-7.4183,-7.4288,-7.4403,-7.4491,-7.4697,-7.4693,-7.4796,-7.4757,-7.4957,-7.4772,-7.4788,-7.476,-7.4753,-7.4766,-7.4994,-7.5,-7.5005,-7.5009,0,-7.4126,-7.4102,-7.4199,-7.4292,-7.4373,-7.4443,-7.4504,-7.4569,-7.4511,-7.4598,-7.4723,-7.4792,-7.4929,-7.5046,-7.514,-7.5162,-7.5078,-7.5068,-7.5113,-7.5135,-7.5144,-7.5142,-7.4536,-7.5054,-7.505,-7.5046,-7.5044,-7.5042,-7.4472,-7.4587,-7.4627,-7.4739,-7.4778,-7.4838,-7.4944,-7.4941,-7.5043,-7.5149,-7.5106,-7.5251,-7.5297,-7.5414,-7.5449,-7.5562,-7.5486,-7.5552,-7.5569,-7.5587,-7.5609,-7.5126,-7.558,-7.5578,-7.5577,-7.5576,-7.5575,0,-7.4936,-7.4955,-7.5059,-7.5147,-7.5236,-7.5146,-7.5209,-7.529,-7.5418,-7.5468,-7.5557,-7.5701,-7.5814,-7.5819,-7.5924,-7.6014,-7.5978,-7.6044,-7.6037,-7.6043,-7.5671,-7.5621,-7.6071,-7.6071,-7.6071,-7.6071,-7.6071,-7.6071,-7.5187,-7.5376,-7.5357,-7.5565,-7.5583,-7.5722,-7.5766,-7.5821,-7.586,-7.6026,-7.6118,-7.6119,-7.6152,-7.6259,-7.6359,-7.6357,-7.6401,-7.6482,-7.6467,-7.6119,-7.6069,-7.6022,-7.5975,-7.6492,-7.6493,-7.6829,-7.6832,-7.6835]},{"header":{"parameterUnit":"m.s-1","parameterCategory":1,"la1":30.2991,"la2":30.254,"lo1":-89.0895,"lo2":-89.0444,"dy":0.0017,"dx":0.0017,"nx":28,"ny":28,"refTime":"2024-09-03T21:00:00:Z","depth":0,"parameterNumber":3,"parameterNumberName":"V-component_of_WINDS"},"data":[0,0,0,0,0,0,0,0,0,0,0,0,0,0,0,0,0,0,0,0,0,0,0,0,0,0,0,0,0,0,0,0,0,0,0,0,0,0,0,0,0,0,0,0,0,0,0,0,0,0,0,0,0,0,0,0,0,0,-1.2455,-1.2455,0,-1.2416,-1.2416,-1.2415,-1.242,-1.2421,-1.2421,-1.2422,-1.2379,-1.2377,-1.2375,0,0,0,0,0,0,0,0,0,0,0,0,0,-1.2529,-1.2528,-1.2455,-1.2455,-1.2454,-1.2416,-1.2416,-1.2415,-1.242,-1.2421,-1.2421,-1.2422,-1.2379,-1.2377,-1.2375,0,0,0,0,0,0,0,0,0,0,0,0,0,-1.2494,-1.2528,-1.2455,-1.2452,-1.2451,-1.2416,-1.2416,-1.2415,-1.242,-1.2421,-1.2422,-1.2423,-1.238,-1.2378,-1.2375,-1.234,0,0,-1.2367,-1.2366,0,0,0,0,0,0,0,0,-1.2496,-1.2492,-1.2453,-1.2452,-1.2451,-1.2424,-1.2426,-1.239,-1.2419,-1.2432,-1.2422,-1.2423,-1.2393,-1.2389,-1.238,-1.2338,-1.2336,-1.2367,-1.2365,-1.2364,-1.2363,0,0,0,0,0,0,0,-1.2499,-1.2493,-1.244,-1.2452,-1.2451,-1.2451,-1.2447,-1.2419,-1.2407,-1.2431,-1.2431,-1.2426,-1.2393,-1.2382,-1.2379,-1.2335,-1.2367,-1.2365,-1.2363,-1.2362,-1.2259,-1.2258,0,0,0,0,0,0,-1.2502,-1.2495,-1.2441,-1.2438,-1.2477,-1.2449,-1.2445,-1.2432,-1.2408,-1.2405,-1.2426,-1.2427,-1.2386,-1.2382,-1.2377,-1.2333,-1.2364,-1.2362,-1.236,-1.226,-1.2259,-1.2258,0,0,0,0,0,0,-1.2504,-1.2498,-1.2442,-1.2467,-1.246,-1.2447,-1.2432,-1.243,-1.242,-1.2404,-1.2401,-1.2418,-1.2387,-1.2381,-1.2349,-1.2331,-1.236,-1.2358,-1.2262,-1.226,-1.2258,-1.2244,0,0,0,0,0,0,-1.2506,-1.2498,-1.2486,-1.2467,-1.2459,-1.2416,-1.2431,-1.2429,-1.2416,-1.2417,-1.2396,-1.2393,-1.2387,-1.2352,-1.2346,-1.2328,-1.2356,-1.2263,-1.2261,-1.2259,-1.2246,-1.2242,-1.2239,0,0,0,0,0,-1.2509,-1.2483,-1.2485,-1.2479,-1.2443,-1.2415,-1.241,-1.2405,-1.2415,-1.2401,-1.239,-1.2394,-1.2334,-1.2349,-1.2342,-1.2323,-1.2264,-1.2262,-1.2259,-1.2248,-1.2243,-1.2239,0,0,0,0,0,0,-1.25,-1.2481,-1.2483,-1.245,-1.2434,-1.2416,-1.2399,-1.24,-1.238,-1.2382,-1.2375,-1.237,-1.2337,-1.2327,-1.2344,-1.2286,-1.23,-1.2296,-1.2294,-1.229,-1.2286,-1.2289,-1.2354,0,0,0,0,0,-1.2495,-1.2475,-1.2458,-1.2431,-1.2423,-1.2412,-1.24,-1.2397,-1.238,-1.2373,-1.2359,-1.2341,-1.2318,-1.2304,-1.2282,-1.2245,-1.2239,-1.2228,-1.2224,-1.2221,-1.2218,-1.2195,-1.2189,-1.2249,-1.2249,-1.2249,0,0,-1.2483,-1.247,-1.2457,-1.2429,-1.2416,-1.2394,-1.2406,-1.2383,-1.2366,-1.2369,-1.2337,-1.2327,-1.2306,-1.227,-1.2254,-1.2261,-1.22,-1.2218,-1.2216,-1.2214,-1.2192,-1.2186,-1.2181,-1.2247,-1.2248,-1.2248,0,0,-1.245,-1.2438,-1.2414,-1.24,-1.2381,-1.2374,-1.2368,-1.2348,-1.2342,-1.231,-1.2311,-1.229,-1.2251,-1.2236,-1.2223,-1.2182,-1.2183,-1.2174,-1.2155,-1.2133,-1.2128,-1.2124,-1.2108,-1.2102,-1.2171,-1.2171,-1.2171,0,-1.2437,-1.2405,-1.2401,-1.2376,-1.2363,-1.2365,-1.2339,-1.2326,-1.23,-1.2289,-1.2298,-1.2248,-1.2234,-1.2194,-1.2184,-1.2174,-1.2165,-1.2177,-1.213,-1.2125,-1.2121,-1.2106,-1.21,-1.217,-1.217,-1.217,-1.217,0,-1.2389,-1.2367,-1.2349,-1.2324,-1.2309,-1.2284,-1.2274,-1.2258,-1.2256,-1.2248,-1.2214,-1.2198,-1.2171,-1.2162,-1.216,-1.2121,-1.2125,-1.2132,-1.2145,-1.2115,-1.21,-1.2094,-1.2168,-1.2169,-1.2169,-1.2169,0,0,-1.2351,-1.2323,-1.2316,-1.2304,-1.2282,-1.2263,-1.2237,-1.2212,-1.2198,-1.218,-1.2156,-1.2123,-1.2128,-1.2113,-1.2109,-1.209,-1.2056,-1.2098,-1.2097,-1.209,-1.2009,-1.2004,-1.1997,-1.2057,-1.2056,-1.2055,-1.2011,0,-1.2314,-1.227,-1.2264,-1.2223,-1.2201,-1.2202,-1.2179,-1.2161,-1.2152,-1.213,-1.212,-1.2095,-1.2105,-1.2095,-1.2077,-1.2064,-1.2039,-1.2067,-1.2033,-1.2032,-1.2038,-1.199,-1.1985,-1.1944,-1.2005,-1.2004,-1.2003,0,-1.2266,-1.2246,-1.2204,-1.2183,-1.2173,-1.2153,-1.2128,-1.2108,-1.2088,-1.2082,-1.2065,-1.2063,-1.2034,-1.2049,-1.2008,-1.2027,-1.2012,-1.2004,-1.2002,-1.1998,-1.2015,-1.1983,-1.1931,-1.1925,-1.1994,-1.1995,-1.1996,0,-1.224,-1.2203,-1.2172,-1.2162,-1.2137,-1.2122,-1.2111,-1.2091,-1.2076,-1.2054,-1.2044,-1.2019,-1.2005,-1.1984,-1.1974,-1.1987,-1.1933,-1.1948,-1.1926,-1.1926,-1.1914,-1.1915,-1.1858,-1.1906,-1.1906,-1.1907,-1.1907,0,-1.22,-1.2173,-1.216,-1.2141,-1.211,-1.2103,-1.2073,-1.2062,-1.2044,-1.2021,-1.202,-1.1999,-1.1988,-1.1964,-1.1956,-1.1922,-1.1915,-1.1909,-1.1907,-1.1908,-1.1909,-1.1898,-1.19,-1.1905,-1.1905,-1.1906,-1.1906,0,-1.2166,-1.2156,-1.2122,-1.2101,-1.2095,-1.2073,-1.2054,-1.2035,-1.2025,-1.1996,-1.1989,-1.1973,-1.1945,-1.1933,-1.1899,-1.1893,-1.1853,-1.1854,-1.186,-1.186,-1.1837,-1.1839,-1.1771,-1.1761,-1.1817,-1.1816,-1.1816,0,-1.2141,-1.212,-1.2096,-1.2082,-1.207,-1.2046,-1.203,-1.2022,-1.2005,-1.1979,-1.1962,-1.1934,-1.1911,-1.1865,-1.185,-1.1822,-1.1822,-1.18,-1.1818,-1.1819,-1.182,-1.1821,-1.1818,-1.1796,-1.1795,-1.1795,-1.1795,0,-1.2096,-1.2091,-1.207,-1.2045,-1.2026,-1.2006,-1.1987,-1.1974,-1.1962,-1.1943,-1.1915,-1.1897,-1.1861,-1.1832,-1.1804,-1.179,-1.1789,-1.1789,-1.1782,-1.1783,-1.1787,-1.1783,-1.185,-1.1791,-1.1791,-1.1791,-1.1792,-1.1792,-1.2064,-1.2045,-1.2026,-1.2,-1.1985,-1.1966,-1.1946,-1.1934,-1.191,-1.1881,-1.1876,-1.1845,-1.1823,-1.1785,-1.177,-1.1744,-1.175,-1.174,-1.1737,-1.1735,-1.1733,-1.1792,-1.1739,-1.1739,-1.1739,-1.1739,-1.1739,0,-1.2018,-1.2005,-1.1982,-1.1955,-1.1934,-1.1936,-1.1914,-1.1896,-1.1869,-1.1849,-1.1826,-1.1792,-1.1764,-1.1746,-1.1716,-1.1699,-1.1698,-1.1692,-1.1692,-1.1689,-1.173,-1.1739,-1.1693,-1.1693,-1.1693,-1.1693,-1.1693,-1.1693,-1.1992,-1.196,-1.1953,-1.1911,-1.1898,-1.1868,-1.1855,-1.1837,-1.1821,-1.1783,-1.176,-1.1748,-1.1728,-1.1697,-1.167,-1.1665,-1.1654,-1.1647,-1.1642,-1.1681,-1.1686,-1.1691,-1.1698,-1.1645,-1.1645,-1.1603,-1.1603,-1.1602]}]]